Theta_e
316 319 319 318 315 319 317 317 318 317 318 317 316 315 315 314 313 312 311 309 308 308 307 306 305 304 304
311 315 316 317 316 317 316 317 318 315 316 315 314 314 313 312 311 310 309 308 308 307 306 305 304 303 303
298 314 316 316 315 315 315 316 317 312 315 314 314 313 312 311 310 308 307 307 307 306 305 303 303 302 302
298 302 313 314 315 312 311 313 313 315 313 313 312 311 311 310 308 306 305 306 306 305 304 303 302 301 300
294 299 310 310 311 312 310 311 312 314 312 311 311 310 309 308 306 304 305 305 305 304 303 301 301 300 299
292 297 304 311 313 311 310 307 305 313 311 309 311 308 308 308 306 305 305 305 304 303 302 301 300 299 298
291 293 298 310 313 311 310 309 308 309 310 306 309 307 308 307 306 305 305 304 303 302 301 300 299 298 297
291 294 296 299 299 311 311 310 310 310 311 304 307 306 307 307 305 305 304 304 303 302 301 300 298 298 297
292 294 295 296 298 298 308 307 304 305 310 306 305 304 305 304 305 304 304 303 303 302 301 300 298 298 295
288 290 293 293 294 295 295 306 304 301 308 304 303 295 293 296 303 303 303 303 302 302 301 300 298 294 291
287 290 292 293 293 295 296 296 306 301 308 304 302 300 292 289 298 302 302 302 301 300 301 300 298 294 289
285 286 289 291 294 296 298 301 307 309 309 309 297 302 296 288 292 298 301 302 300 298 298 299 299 296 294
283 284 287 292 295 296 301 305 308 309 307 309 305 304 302 297 292 295 297 298 299 297 297 296 295 293 290
284 286 287 288 292 295 296 301 302 299 303 309 306 303 300 300 296 295 299 293 297 297 296 295 295 294 291
284 284 286 287 287 292 294 298 299 299 298 303 305 303 303 299 293 296 297 295 296 295 294 292 293 293 291
284 285 285 287 288 290 292 296 298 299 298 299 294 290 287 289 296 294 296 295 294 295 294 291 291 293 292
283 284 284 285 288 288 290 294 298 299 299 295 295 294 291 291 288 295 294 293 292 292 293 293 291 290 291
Wind_Speed
4 11 19 17 16 15 15 15 13 24 19 24 25 25 20 20 19 18 18 18 17 16 15 13 11 10 9
2 9 15 19 21 18 13 14 14 19 25 24 25 26 26 23 21 19 18 17 17 16 15 14 13 11 10
5 3 8 13 19 16 15 15 12 18 27 25 26 26 28 27 25 22 18 16 16 15 15 14 13 12 10
5 7 8 11 15 15 13 12 12 12 17 22 24 26 26 29 28 24 21 19 18 17 15 14 12 12 11
7 7 8 12 15 13 14 12 12 11 11 12 13 13 15 24 25 28 26 23 20 20 18 17 14 14 13
6 9 7 14 16 15 14 14 11 9 12 11 13 12 12 12 21 27 27 25 23 22 21 19 17 15 15
9 10 7 6 13 17 18 18 14 10 13 12 12 13 12 12 23 25 26 28 26 25 22 20 19 17 16
12 9 8 6 5 10 20 22 14 11 16 13 11 10 12 12 25 27 28 27 27 27 26 24 20 18 18
20 16 18 17 10 6 10 16 12 9 16 9 8 7 10 11 12 27 29 29 28 27 26 25 28 25 16
9 15 18 15 19 11 7 11 15 7 13 10 10 7 4 1 10 13 14 28 29 28 27 25 23 10 9
7 7 9 10 9 9 12 9 14 8 13 11 9 10 4 4 6 11 14 14 14 17 26 25 25 16 9
9 9 9 9 10 10 13 13 13 15 18 22 8 16 10 4 6 9 13 12 14 14 13 19 26 24 20
11 10 9 8 9 10 12 12 12 12 14 25 12 18 13 9 9 10 13 11 12 13 13 14 14 13 11
11 9 7 7 9 9 9 9 10 7 11 22 16 17 12 11 10 9 13 11 13 12 12 12 12 12 12
11 10 10 9 11 8 11 11 10 10 10 13 15 13 12 14 10 10 13 9 13 13 12 12 12 13 13
12 11 12 10 10 10 11 14 12 12 13 11 10 7 3 4 2 10 10 11 9 13 12 11 11 11 12
13 13 12 12 12 10 12 11 12 13 13 11 15 14 13 12 3 9 13 11 11 11 13 12 11 11 12
Wind_Direction
197 192 163 161 166 176 164 173 177 167 163 162 160 153 157 153 152 155 156 166 170 166 162 160 153 145 134
244 181 174 170 166 170 171 173 173 171 159 165 162 160 151 152 149 156 161 174 173 170 169 167 161 157 148
306 198 179 163 169 167 170 174 173 164 159 167 164 165 157 153 152 159 169 177 175 172 171 171 168 164 160
281 293 175 170 169 162 170 173 166 169 170 169 168 167 168 159 157 166 174 175 175 170 168 168 172 170 169
254 263 202 172 182 166 169 163 172 173 165 171 172 173 176 173 170 169 173 177 176 171 169 169 173 176 172
244 243 280 185 174 175 168 168 170 192 168 173 170 183 182 187 178 175 173 177 176 175 173 178 178 180 177
237 243 254 216 180 180 173 178 180 167 174 177 178 182 182 186 177 179 177 176 178 176 176 180 180 180 180
243 258 268 307 327 216 181 186 181 173 175 184 180 178 177 183 180 179 178 180 181 181 179 176 179 180 181
250 255 258 267 284 322 210 180 174 178 190 160 174 169 176 181 180 184 181 181 183 185 186 182 176 175 181
231 246 248 255 257 252 279 205 174 168 189 168 157 142 135 195 181 183 186 186 184 186 187 186 183 167 168
238 231 226 230 238 227 232 248 207 177 170 159 170 170 118 150 168 186 186 183 184 189 187 186 182 175 168
228 227 234 229 230 219 229 232 249 207 173 179 165 179 160 147 165 180 189 186 181 181 184 187 187 185 185
224 225 228 235 237 226 229 229 241 211 186 189 178 183 179 182 163 178 167 189 184 179 181 182 182 183 178
223 223 220 232 234 221 221 224 210 216 184 192 180 178 179 187 171 168 183 177 178 181 181 183 185 189 190
223 217 225 218 228 249 217 230 209 188 182 187 187 180 195 171 168 178 178 177 180 171 175 184 190 189 188
221 217 218 219 224 216 246 210 219 187 179 175 149 127 75 3 224 173 179 176 172 176 180 186 192 190 189
214 219 219 217 219 224 219 242 202 197 184 169 173 174 180 186 167 227 171 177 164 178 185 194 188 189 181